RH
42 46 43 38 32 31 29 27 32 33 30 21 19 21 27 26 22 20 20 20 26 32 31 34 37 37 38 35 34 32 26 22 20 26 26 26 24 21 19 14 10 8 8
49 46 43 38 34 35 34 35 35 31 24 21 26 30 25 22 21 22 25 34 37 40 39 41 41 39 38 33 26 25 25 26 20 16 22 20 14 10 6 5 4 4 3
51 47 42 39 38 40 38 37 30 26 23 30 31 25 23 21 24 32 35 43 43 41 41 41 40 35 30 26 26 24 23 20 16 11 6 6 6 5 5 5 4 3 3
49 44 43 41 40 38 36 31 29 26 29 30 25 22 22 27 34 43 48 46 42 41 42 39 32 28 27 25 22 21 17 13 7 5 5 5 4 4 3 3 3 3 3
48 44 43 41 38 34 33 29 26 27 29 24 23 24 32 38 45 48 43 41 46 48 41 35 31 28 22 22 18 11 6 5 5 4 4 4 4 3 3 3 3 3 2
44 44 42 37 34 32 28 25 29 30 24 22 27 37 41 44 43 42 45 50 45 39 38 35 26 22 24 18 8 6 5 4 3 3 3 3 3 3 3 3 3 2 2
46 45 38 33 30 27 27 32 28 24 23 34 39 39 41 43 47 49 48 47 52 42 34 26 22 21 9 6 6 5 4 3 3 3 3 3 3 3 3 2 2 2 2
45 40 33 28 26 33 34 25 23 30 40 39 37 43 45 51 45 48 58 56 44 38 28 21 14 6 6 5 4 4 3 3 3 3 3 3 3 3 2 2 2 2 2
37 31 27 29 37 28 25 23 40 39 36 39 45 52 49 46 61 60 53 46 37 27 23 10 6 6 5 4 4 4 4 3 3 3 3 3 2 2 2 2 2 3 3
28 32 38 34 26 24 33 40 40 39 43 57 55 49 57 69 55 49 41 34 28 19 11 6 6 6 4 4 4 4 3 3 3 3 3 2 3 3 3 4 4 4 4
41 37 27 25 28 39 40 42 37 48 61 54 56 69 66 55 52 45 36 24 12 10 7 6 6 4 4 4 4 4 4 3 3 2 3 3 3 4 4 5 6 6 6
27 26 26 35 38 41 39 40 56 62 51 66 73 71 63 61 51 43 31 15 10 8 7 6 5 5 4 4 4 3 3 3 3 3 3 4 4 5 7 8 8 9 9
25 34 36 45 46 43 40 63 57 56 70 71 69 65 64 58 51 36 18 11 9 8 6 5 5 5 4 4 4 3 3 3 4 4 5 6 7 8 9 10 9 10 9
39 43 51 44 42 40 61 55 64 71 68 67 64 64 64 59 35 17 11 11 9 7 6 6 5 5 4 4 3 3 4 4 5 6 8 9 9 10 10 10 10 11 12
46 42 42 41 47 60 56 67 67 65 65 63 61 61 58 37 15 11 10 9 7 6 6 5 5 4 4 4 4 4 5 6 8 8 10 10 11 12 12 11 11 13 13
40 41 46 61 55 60 68 66 64 66 63 58 61 56 32 14 11 10 9 7 6 6 5 5 5 4 4 4 5 6 8 9 10 11 12 12 13 14 14 13 13 13 14
51 64 60 55 66 66 65 69 73 71 65 71 62 36 16 11 10 9 8 6 7 6 6 5 4 4 5 5 6 8 9 11 14 16 18 20 20 20 20 21 19 15 13
65 54 61 65 66 67 68 71 67 65 78 76 46 17 12 12 9 8 6 6 6 6 5 5 5 5 6 6 8 10 13 16 17 19 22 23 22 19 19 19 20 20 18
59 65 67 67 66 64 66 65 63 74 76 54 18 13 13 10 8 6 7 6 6 5 5 5 5 6 7 9 11 15 16 17 19 22 22 20 20 20 19 16 14 15 16
66 70 68 67 64 58 60 62 69 73 55 19 13 12 10 8 6 7 7 6 5 5 5 6 6 7 9 12 16 16 16 17 18 18 16 15 15 17 14 10 12 12 13
72 69 70 64 54 57 61 64 65 54 22 13 11 10 8 6 7 7 6 6 5 6 6 7 8 9 14 16 16 18 19 17 14 13 13 15 15 15 11 8 8 9 9
72 69 63 58 57 58 61 59 56 24 14 11 10 8 6 7 7 6 6 5 6 7 8 8 10 14 16 16 17 16 14 11 11 13 14 13 10 8 8 7 7 8 8
70 69 66 56 54 59 58 53 23 14 10 10 7 6 7 7 7 6 5 6 7 9 10 12 16 19 18 18 17 13 11 10 12 12 12 11 8 7 7 7 7 7 8
73 67 52 54 60 61 50 22 16 10 9 7 6 7 8 7 6 5 6 7 9 10 12 17 21 20 20 20 16 12 10 10 12 12 11 9 8 7 7 7 6 6 7
67 51 56 58 59 48 23 17 11 9 7 6 7 8 7 6 5 6 7 9 10 12 19 22 22 22 25 20 15 13 12 12 12 11 10 8 7 7 7 6 6 6 6
52 55 55 56 47 22 16 11 8 7 6 7 8 7 6 5 6 7 9 10 12 19 23 24 27 27 24 19 16 14 13 13 13 12 10 8 6 6 6 6 6 6 6
Wind_Speed
51 52 54 54 56 59 61 65 68 73 79 82 84 88 93 96 100 102 99 94 93 95 98 99 101 99 99 100 101 102 103 108 109 105 112 117 120 123 127 129 131 132 131
53 56 58 59 61 65 68 70 75 81 84 87 91 95 98 102 103 97 93 95 97 98 99 100 101 101 102 102 104 107 111 118 123 122 121 125 127 128 124 119 115 113 111
57 60 62 64 67 70 73 77 82 87 90 93 98 101 105 103 96 95 97 97 98 99 100 101 101 102 104 107 113 118 123 126 129 130 122 118 113 112 106 105 105 104 101
61 64 66 68 71 75 79 84 88 91 95 99 102 106 99 94 96 96 96 96 98 100 102 103 106 110 114 118 121 125 127 128 124 119 111 104 100 97 95 91 93 92 88
64 66 69 72 76 80 85 89 92 96 100 103 105 97 95 96 96 93 94 97 99 100 104 110 114 119 123 126 130 127 122 115 110 102 98 95 92 89 86 85 82 81 80
68 70 73 77 81 86 89 92 96 100 104 103 93 95 95 92 93 95 95 95 100 107 111 117 121 124 127 130 124 118 113 103 96 92 89 86 86 81 79 76 72 72 71
72 75 78 82 86 89 92 96 100 103 96 93 93 91 91 93 93 92 96 103 109 116 120 123 125 129 124 115 110 105 102 98 91 84 82 81 79 75 71 68 65 64 61
76 79 83 86 88 92 95 99 100 92 91 90 90 90 90 89 91 98 103 111 118 123 126 129 127 118 111 104 99 97 93 87 83 80 76 74 70 68 64 61 59 55 52
79 83 85 88 92 96 99 92 89 89 89 88 89 86 86 93 99 105 112 118 122 126 128 126 116 107 101 98 93 87 82 79 76 72 69 66 63 60 58 54 50 48 45
81 83 87 91 95 94 87 86 85 86 87 85 83 88 93 100 107 113 118 122 125 125 122 115 107 102 97 91 83 78 76 71 69 64 60 58 55 51 49 47 46 42 40
83 87 91 93 86 85 82 83 84 85 80 82 88 94 101 107 113 119 125 128 124 118 113 104 100 95 90 83 77 72 68 64 61 59 54 50 47 44 41 38 36 37 34
87 88 85 81 81 79 81 82 81 76 81 87 93 100 107 113 120 125 128 126 119 113 106 99 94 86 80 77 72 67 62 59 54 50 47 44 41 37 35 33 31 31 31
82 79 79 77 77 77 80 78 76 81 87 93 99 104 110 117 124 127 125 116 111 107 100 93 85 80 76 70 65 61 57 52 47 44 40 37 36 33 31 30 28 26 28
75 75 74 74 75 78 73 75 80 86 92 98 103 108 115 122 125 122 111 106 102 98 93 86 81 77 71 65 60 57 52 46 41 37 35 33 32 30 29 28 27 23 23
72 71 72 74 73 70 75 80 86 92 97 101 107 113 119 123 119 108 103 98 94 90 83 79 76 69 64 60 56 51 46 41 36 34 32 30 30 30 30 28 27 23 21
70 70 68 65 67 72 79 87 92 97 102 108 114 120 123 119 109 102 98 93 87 81 77 75 69 63 59 54 50 44 40 36 33 31 30 29 29 28 28 28 27 24 19
61 60 61 66 71 78 84 89 94 103 110 116 121 123 120 111 101 95 92 87 79 77 74 69 62 58 54 50 44 39 36 34 31 28 27 27 27 28 27 27 26 23 21
54 60 65 71 78 83 89 95 99 104 111 119 122 117 111 103 96 90 85 79 75 73 69 62 58 53 49 44 40 36 34 30 28 26 26 27 28 28 27 27 26 25 21
59 65 71 77 83 88 94 99 105 111 117 121 115 109 102 98 91 83 77 73 71 67 60 57 53 48 43 39 36 33 31 29 26 25 27 29 30 31 30 28 25 25 25
66 72 78 84 90 95 100 105 110 117 120 113 107 98 93 89 84 78 72 69 65 59 54 50 46 42 39 36 33 31 29 29 29 30 32 32 33 33 32 27 26 24 21
73 79 85 90 96 101 106 111 116 118 111 106 98 91 85 80 75 70 67 63 57 53 48 43 40 37 36 34 31 28 28 29 30 31 30 29 30 33 33 28 20 18 18
80 85 90 96 102 107 111 116 117 110 105 96 89 85 79 73 68 65 60 55 50 45 41 38 36 33 33 30 30 31 32 30 30 28 26 26 30 31 29 25 20 15 14
86 91 96 102 106 111 115 115 108 104 95 88 83 79 72 67 63 59 53 48 43 38 35 33 32 31 31 32 33 34 33 30 26 23 23 26 27 23 21 20 15 10 10
91 96 102 106 112 115 114 106 102 94 87 81 76 70 64 61 56 51 47 41 36 32 30 30 29 31 33 33 35 37 37 33 27 23 22 22 21 18 14 14 12 8 7
96 102 106 111 115 114 104 100 93 87 81 75 68 62 59 54 49 45 39 34 30 27 27 27 28 29 32 36 38 38 37 34 29 24 21 18 16 13 11 9 9 7 6
102 107 111 114 112 103 98 92 87 81 74 67 61 57 52 48 43 37 32 28 25 24 24 24 24 28 32 35 37 37 35 31 28 27 25 21 17 13 11 9 5 4 5
Wind_Direction
265 268 269 272 276 281 285 288 294 297 299 301 303 305 306 305 306 306 305 305 305 304 303 302 302 301 299 298 298 298 298 297 296 294 293 291 290 288 286 285 284 283 282
267 269 271 275 280 284 288 292 295 298 300 303 305 305 306 306 306 306 306 305 304 303 303 303 301 300 300 300 300 300 299 298 297 297 295 292 290 288 288 287 286 284 283
268 271 274 278 283 287 292 294 297 299 303 304 305 306 306 306 306 306 306 304 304 304 303 303 302 302 302 302 302 301 300 299 298 297 296 295 294 292 290 288 287 287 286
272 275 278 282 287 291 293 295 299 301 302 305 305 306 305 306 306 305 305 305 304 305 304 304 303 303 303 302 302 301 300 300 299 299 299 297 295 292 291 290 289 289 288
275 277 282 286 289 291 294 297 300 301 303 304 305 305 306 306 305 305 305 305 306 305 305 304 303 303 304 306 304 304 303 301 301 302 301 299 296 295 294 292 290 289 288
276 280 285 288 291 294 296 299 301 303 304 304 304 306 305 305 306 306 308 307 306 305 304 303 305 307 308 307 307 305 303 303 305 304 301 299 298 297 296 295 293 291 290
280 282 287 290 293 295 298 301 302 302 303 304 306 305 306 307 308 309 308 307 306 305 306 307 309 309 309 308 307 306 306 307 306 304 303 301 301 300 299 297 295 292 292
281 285 288 291 295 298 300 301 301 302 304 304 306 308 308 309 310 308 308 307 307 308 309 311 310 311 310 310 309 309 308 307 307 306 303 303 303 302 300 299 296 293 293
283 286 290 295 297 299 300 301 302 303 305 306 307 309 310 310 308 308 309 309 309 309 313 311 313 313 312 312 311 310 309 308 307 306 305 304 304 303 303 301 301 302 300
285 291 293 295 297 300 300 302 304 304 306 309 310 310 309 309 311 311 310 310 311 315 313 314 315 315 314 314 312 312 311 309 308 307 307 307 305 304 304 306 306 304 303
290 293 294 297 299 300 302 303 304 307 309 310 310 309 310 312 312 312 312 314 317 316 315 316 316 315 315 314 314 314 312 311 310 310 309 306 305 306 306 306 305 307 306
291 294 296 297 300 301 302 305 306 306 308 309 310 312 314 314 313 314 315 318 317 317 316 318 317 317 316 316 316 315 314 313 313 310 309 309 308 308 309 309 309 308 307
292 294 297 299 301 301 304 305 306 308 309 311 313 314 314 313 314 315 318 318 317 317 317 319 318 318 318 318 317 317 316 315 313 313 312 311 311 311 311 311 311 311 311
294 297 299 299 300 303 303 305 307 308 311 312 314 315 314 314 315 317 318 317 318 317 319 320 320 320 319 319 319 319 318 317 317 314 312 312 313 313 314 312 311 313 314
297 298 298 300 302 303 305 307 310 312 312 313 314 315 314 315 318 320 319 319 318 319 319 319 319 320 319 321 321 320 319 318 317 315 315 313 312 311 311 311 314 316 320
297 298 300 301 302 304 307 311 313 313 314 316 317 317 316 319 321 320 320 319 321 321 320 319 321 320 321 323 322 321 320 319 318 315 313 311 310 310 311 311 312 312 314
298 299 300 302 305 308 311 313 313 315 318 319 317 317 319 320 320 321 320 321 322 321 320 321 322 322 323 323 323 320 319 318 316 313 311 309 309 309 307 307 307 308 311
298 300 303 306 309 311 312 313 317 318 319 317 317 318 321 320 321 322 322 322 322 320 322 323 323 323 323 323 322 320 319 317 313 311 310 308 309 308 305 301 300 300 302
301 304 307 309 311 312 314 317 319 320 318 318 318 321 321 319 321 323 323 322 320 322 322 322 322 323 324 323 323 322 318 313 306 306 309 306 304 302 302 304 302 299 296
304 306 308 310 311 314 317 319 320 319 318 319 321 321 320 320 321 324 322 321 321 321 322 321 322 324 324 324 324 321 317 313 308 311 310 308 307 304 307 309 300 299 293
305 307 309 311 313 316 318 320 320 319 319 321 321 320 321 321 323 322 320 321 320 322 321 321 324 326 327 326 328 332 333 327 319 314 311 309 307 305 310 311 310 297 286
306 308 310 313 315 318 320 321 320 319 320 321 321 321 322 323 323 321 321 321 322 323 322 324 326 328 329 333 337 339 337 333 325 321 317 312 311 311 309 309 313 303 278
308 310 313 314 317 320 321 320 319 320 321 321 322 321 323 323 322 321 321 323 324 324 325 327 329 332 337 342 344 345 346 344 335 325 322 322 321 316 309 307 304 295 270
310 312 313 316 319 320 321 319 319 321 322 322 321 322 323 322 321 320 323 325 324 325 328 328 330 335 341 343 344 345 347 351 346 337 333 330 329 326 320 309 304 291 256
312 313 316 318 320 321 319 318 320 322 321 321 321 323 323 321 321 322 326 324 325 328 330 330 334 340 344 344 342 342 348 351 350 345 344 341 343 346 344 336 307 293 248
312 315 318 320 321 319 319 319 321 321 321 321 322 323 322 321 322 325 324 323 328 331 333 337 344 347 346 342 339 342 348 350 354 359 356 356 3 11 21 21 1 284 249